Weather History for Meeker, CO

Change the Weather History Date:

Thursday, October 31, 2013

  Actual Average Record
Temperature  
Mean Temperature 35 °F 39 °F  
Max Temperature 39 °F 53 °F 71 °F (2008)
Min Temperature 30 °F 24 °F 21 °F (1999)
Degree Days  
Heating Degree Days 30 26  
Month to date heating degree days 700 636  
Since 1 July heating degree days 912 944  
Cooling Degree Days 0 0  
Month to date cooling degree days 0 0  
Year to date cooling degree days 324 172  
Moisture  
Dew Point 30 °F    
Average Humidity 85    
Maximum Humidity 100    
Minimum Humidity 70    
Precipitation  
Precipitation 0.01 in 0.07 in 0.19 in (2003)
Month to date precipitation 3.01 1.86  
Year to date precipitation 16.04 13.48  
Sea Level Pressure  
Sea Level Pressure 30.08 in    
Wind  
Wind Speed 2 mph (SSE)    
Max Wind Speed 14 mph    
Max Gust Speed 20 mph    
Visibility 8 miles    
Events Snow    
T = Trace of Precipitation, MM = Missing Value Source: NWS Daily Summary

Daily Weather History Graph

Daily Weather History Graph

Search for Another Location

Airport:

Trip Planner

Search our weather history database for the weather conditions in past years. The results will help you decide how hot, cold, wet, or windy it might be!

Date:

Astronomy

Oct. 31, 2013 Rise Set
Actual Time 7:39 AM MDT 6:09 PM MDT
Civil Twilight 7:11 AM MDT 6:37 PM MDT
Nautical Twilight 6:39 AM MDT 7:09 PM MDT
Astronomical Twilight 6:08 AM MDT 7:41 PM MDT
Moon 4:32 AM MDT (10/31) 4:29 PM MDT (10/31)
Length of Visible Light 11h 26m
Length of Day
10h 29m
Waning Crescent, 9% of the Moon is Illuminated
Oct 31
Waning Crescent
Nov 3
New
Nov 9
First Quarter
Nov 17
Full
Nov 25
Last Quarter

Hourly Weather History & Observations

Time (MDT) Temp. Windchill Dew Point Humidity Pressure Visibility Wind Dir Wind Speed Gust Speed Precip Events Conditions
12:12 AM 30.2 °F - 30.2 °F 100% 30.02 in 5.0 mi Calm Calm - 0.00 in Snow Light Snow
12:17 AM 30.2 °F - 30.2 °F 100% 30.02 in 6.0 mi Calm Calm - 0.00 in Snow Light Snow
12:28 AM 30.2 °F - 30.2 °F 100% 30.02 in 3.0 mi Calm Calm - 0.00 in Snow Light Snow
12:36 AM 30.2 °F - 30.2 °F 100% 30.02 in 2.5 mi Calm Calm - 0.00 in Snow Light Snow
12:43 AM 30.2 °F - 30.2 °F 100% 30.02 in 4.0 mi Calm Calm - 0.00 in Snow Light Snow
12:53 AM 30.9 °F - 30.0 °F 96% 30.03 in 3.0 mi Calm Calm - 0.00 in Snow Light Snow
1:12 AM 30.2 °F - 30.2 °F 100% 30.02 in 5.0 mi Calm Calm - 0.00 in Snow Light Snow
1:29 AM 30.2 °F - 30.2 °F 100% 30.03 in 4.0 mi Calm Calm - 0.00 in Snow Light Snow
1:51 AM 30.2 °F - 30.2 °F 100% 30.03 in 6.0 mi Calm Calm - 0.00 in Snow Light Snow
1:53 AM 30.9 °F 27.5 °F 30.0 °F 96% 30.03 in 6.0 mi SE 3.5 mph - 0.00 in Snow Light Snow
2:08 AM 30.2 °F - 30.2 °F 100% 30.04 in 7.0 mi Calm Calm - 0.00 in Snow Light Snow
2:40 AM 30.2 °F - 30.2 °F 100% 30.04 in 10.0 mi Calm Calm - 0.00 in   Overcast
2:53 AM 30.9 °F - 30.9 °F 100% 30.07 in 5.0 mi Calm Calm - 0.00 in Snow Light Snow
3:10 AM 30.2 °F - 30.2 °F 100% 30.05 in 5.0 mi Calm Calm - 0.00 in Snow Light Snow
3:50 AM 30.2 °F - 28.4 °F 93% 30.05 in 8.0 mi Calm Calm - 0.00 in Snow Light Snow
3:53 AM 30.0 °F - 30.0 °F 100% 30.07 in 8.0 mi Calm Calm - 0.00 in Snow Light Snow
4:18 AM 30.2 °F - 30.2 °F 100% 30.05 in 10.0 mi Calm Calm - 0.00 in   Overcast
4:53 AM 30.9 °F - 30.0 °F 96% 30.06 in 10.0 mi Calm Calm - 0.00 in   Overcast
5:53 AM 30.0 °F - 30.0 °F 100% 30.09 in 10.0 mi Calm Calm - 0.00 in   Overcast
6:53 AM 30.9 °F - 30.0 °F 96% 30.10 in 10.0 mi Calm Calm - N/A   Overcast
7:53 AM 30.0 °F - 28.9 °F 96% 30.12 in 10.0 mi Calm Calm - N/A   Overcast
8:53 AM 30.9 °F - 30.0 °F 96% 30.14 in 10.0 mi Calm Calm - N/A   Overcast
9:53 AM 30.9 °F - 30.0 °F 96% 30.16 in 10.0 mi Calm Calm - N/A   Overcast
10:53 AM 32.0 °F - 30.0 °F 92% 30.16 in 9.0 mi Calm Calm - N/A   Overcast
11:53 AM 35.1 °F - 28.0 °F 76% 30.14 in 10.0 mi Calm Calm - N/A   Overcast
12:53 PM 36.0 °F 33.3 °F 28.9 °F 76% 30.12 in 10.0 mi NE 3.5 mph - N/A   Overcast
1:53 PM 37.0 °F - 28.0 °F 70% 30.10 in 10.0 mi Calm Calm - N/A   Overcast
2:53 PM 37.0 °F 34.5 °F 28.9 °F 73% 30.10 in 10.0 mi ESE 3.5 mph - N/A   Overcast
3:12 PM 37.4 °F 34.9 °F 28.4 °F 70% 30.09 in 10.0 mi SE 3.5 mph - N/A   Overcast
3:53 PM 37.0 °F - 28.9 °F 73% 30.09 in 10.0 mi Calm Calm - N/A   Overcast
4:28 PM 37.4 °F 32.1 °F 28.4 °F 70% 30.08 in 10.0 mi South 6.9 mph - N/A   Overcast
4:53 PM 37.9 °F 31.5 °F 30.0 °F 73% 30.06 in 10.0 mi South 9.2 mph - N/A   Overcast
5:53 PM 37.9 °F - 28.9 °F 70% 30.08 in 10.0 mi Calm Calm - N/A   Overcast
6:53 PM 37.9 °F - 28.9 °F 70% 30.08 in 10.0 mi Calm Calm - N/A   Overcast
7:53 PM 37.0 °F 31.6 °F 28.9 °F 73% 30.10 in 10.0 mi Variable 6.9 mph 16.1 mph N/A   Overcast
8:53 PM 37.0 °F 32.4 °F 28.9 °F 73% 30.08 in 10.0 mi SW 5.8 mph 19.6 mph 0.00 in   Overcast
9:53 PM 36.0 °F 28.5 °F 30.0 °F 79% 30.10 in 9.0 mi SSW 10.4 mph - 0.01 in Snow Light Snow
10:37 PM 37.4 °F - 28.4 °F 70% 30.11 in 10.0 mi Calm Calm - 0.00 in   Overcast
10:53 PM 37.0 °F - 30.0 °F 76% 30.11 in 10.0 mi Calm Calm - 0.00 in   Overcast
11:09 PM 37.4 °F 34.9 °F 30.2 °F 75% 30.11 in 10.0 mi Variable 3.5 mph - N/A   Overcast
11:45 PM 33.8 °F 28.6 °F 30.2 °F 87% 30.12 in 4.0 mi North 5.8 mph - 0.00 in Snow Light Snow
11:53 PM 34.0 °F 29.8 °F 32.0 °F 92% 30.12 in 6.0 mi North 4.6 mph - 0.00 in Snow Light Snow